Orbital Elements at Epoch 2459000.5 (2020-May-31.0) TDB
Reference: JPL 20 (heliocentric ecliptic J2000)
Element | Value | Uncertainty (1-sigma) | Units |
e | .1914201910039106 | 7.0536e-08 | |
a | 2.574671358410455 | 2.2624e-08 | au |
q | 2.081827275211227 | 1.9075e-07 | au |
i | 10.87208626260739 | 5.4793e-06 | deg |
node | 231.3560202971516 | 3.0383e-05 | deg |
peri | 156.6627555876554 | 3.3837e-05 | deg |
M | 125.3587211280838 | 1.652e-05 | deg |
tp | 2458475.047839905774 (2018-Dec-22.54783991) | 6.4903e-05 | TDB |
period | 1508.971820481851 4.13 | 1.9889e-05 5.445e-08 | d yr |
n | .238573043653687 | 3.1446e-09 | deg/d |
Q | 3.067515441609682 | 2.6955e-08 | au |
|
| | Orbit Determination Parameters
Additional Information
|